Location: Kosice
(48.7167°N, 21.2500°E)
Time: 16:15:06
(UTC+02:00)

ISS - Visible Passes

Search period start: 25 September 2022 00:00
Search period end: 05 October 2022 00:00
Orbit: 414 x 417 km, 51.6° (Epoch: 25 September)

Date Brightness Start Highest point End Pass type
(mag) Time Alt. Az. Time Alt. Az. Time Alt. Az.
25 Sep -3.1 18:58:28 10° W 19:01:46 51° N 19:05:04 10° ENE visible
25 Sep -3.2 20:35:25 10° WNW 20:38:20 56° NNW 20:38:20 56° NNW visible
26 Sep -3.3 19:46:45 10° WNW 19:50:04 54° N 19:51:30 29° ENE visible
26 Sep -0.8 21:23:32 10° WNW 21:24:22 16° WNW 21:24:22 16° WNW visible
27 Sep -3.2 18:58:02 10° WNW 19:01:19 49° N 19:04:37 10° E visible
27 Sep -3.1 20:34:51 10° WNW 20:37:32 53° W 20:37:32 53° W visible
28 Sep -3.8 19:46:10 10° WNW 19:49:31 77° NNE 19:50:42 37° E visible
28 Sep -0.6 21:23:09 10° W 21:23:35 13° W 21:23:35 13° W visible
29 Sep -3.5 18:57:27 10° WNW 19:00:47 62° NNE 19:03:53 12° E visible
29 Sep -2.4 20:34:17 10° WNW 20:36:46 35° WSW 20:36:46 35° WSW visible
30 Sep -3.5 19:45:29 10° WNW 19:48:48 59° SSW 19:50:00 34° SE visible
01 Oct -3.7 18:56:44 10° WNW 19:00:06 84° SSW 19:03:16 11° ESE visible
01 Oct -1.5 20:34:00 10° W 20:36:10 19° SW 20:36:10 19° SW visible
02 Oct -2.1 19:44:55 10° W 19:47:52 28° SW 19:49:30 19° S visible
03 Oct -2.7 18:55:59 10° WNW 18:59:11 43° SSW 19:02:24 10° SE visible
04 Oct -1.0 19:44:58 10° WSW 19:46:40 13° SW 19:48:22 10° SSW visible
